[[{"header":{"parameterUnit":"m.s-1","parameterCategory":1,"la1":30.2991,"la2":30.254,"lo1":-89.0895,"lo2":-89.0444,"dy":0.0017,"dx":0.0017,"nx":28,"ny":28,"refTime":"2023-07-20T21:00:00:Z","depth":0,"parameterNumber":2,"parameterNumberName":"U-component_of_WINDS"},"data":[0,0,0,0,0,0,0,0,0,0,0,0,0,0,0,0,0,0,0,0,0,0,0,0,0,0,0,0,0,0,0,0,0,0,0,0,0,0,0,0,0,0,0,0,0,0,0,0,0,0,0,0,0,0,0,0,0,0,4.1253,4.1254,0,4.1347,4.1348,4.1349,4.1317,4.1315,4.1313,4.1311,4.1411,4.1415,4.142,0,0,0,0,0,0,0,0,0,0,0,0,0,4.105,4.1054,4.1253,4.1254,4.1255,4.1346,4.1348,4.1349,4.1317,4.1315,4.1312,4.131,4.1409,4.1415,4.142,0,0,0,0,0,0,0,0,0,0,0,0,0,4.1141,4.1056,4.1252,4.125,4.1251,4.1346,4.1348,4.1349,4.1318,4.1315,4.1311,4.1309,4.1407,4.1414,4.1421,4.1525,0,0,4.1442,4.1445,0,0,0,0,0,0,0,0,4.1136,4.1148,4.1249,4.125,4.1251,4.1317,4.1313,4.1409,4.1318,4.1292,4.1311,4.1307,4.1382,4.1391,4.1416,4.153,4.1534,4.1443,4.1447,4.145,4.1452,0,0,0,0,0,0,0,4.1129,4.1144,4.129,4.1251,4.1252,4.1246,4.1255,4.1331,4.1354,4.1294,4.1292,4.1304,4.1382,4.1409,4.1418,4.1536,4.1442,4.1448,4.1453,4.1455,4.1744,4.1747,0,0,0,0,0,0,4.1122,4.1139,4.1287,4.1293,4.1185,4.1252,4.1262,4.1299,4.1353,4.1358,4.1306,4.1302,4.1399,4.141,4.1421,4.1549,4.145,4.1456,4.146,4.174,4.1745,4.1748,0,0,0,0,0,0,4.1118,4.1135,4.1283,4.1215,4.1234,4.1259,4.13,4.1302,4.1329,4.1362,4.1366,4.1329,4.1397,4.1411,4.15,4.1552,4.1459,4.1465,4.1736,4.1742,4.1746,4.1804,0,0,0,0,0,0,4.1112,4.1134,4.1173,4.1216,4.1237,4.1359,4.1303,4.1307,4.1341,4.1336,4.1384,4.1389,4.1395,4.149,4.1507,4.1559,4.1471,4.1732,4.1739,4.1745,4.1797,4.181,4.1821,0,0,0,0,0,4.1105,4.1186,4.1175,4.1193,4.1286,4.1362,4.1374,4.1379,4.1345,4.1385,4.1406,4.1388,4.1543,4.1499,4.1518,4.1573,4.1728,4.1737,4.1744,4.1792,4.1808,4.1821,0,0,0,0,0,0,4.1148,4.1191,4.118,4.1277,4.1316,4.1357,4.1407,4.1395,4.1445,4.1439,4.1443,4.1455,4.1546,4.1569,4.1519,4.1679,4.1631,4.1643,4.1661,4.1676,4.1688,4.1681,4.1477,0,0,0,0,0,4.1169,4.1226,4.1261,4.1343,4.1363,4.1382,4.1415,4.1415,4.1457,4.1473,4.1501,4.1543,4.1601,4.164,4.1695,4.18,4.1812,4.1848,4.186,4.187,4.188,4.194,4.1957,4.1774,4.1774,4.1774,0,0,4.1213,4.1243,4.1279,4.1352,4.1383,4.1443,4.1396,4.1462,4.1507,4.1484,4.1569,4.1591,4.1639,4.1736,4.1781,4.1758,4.1933,4.188,4.1887,4.1893,4.195,4.1967,4.1982,4.178,4.1779,4.1778,0,0,4.1323,4.1351,4.1423,4.1455,4.1501,4.1514,4.1531,4.1574,4.1588,4.1673,4.1657,4.1712,4.1812,4.1847,4.1878,4.2004,4.199,4.2022,4.2085,4.2143,4.2157,4.217,4.2217,4.2233,4.2032,4.2033,4.2033,0,4.1372,4.1461,4.1463,4.153,4.1564,4.1544,4.1619,4.165,4.1713,4.1737,4.171,4.1837,4.1867,4.1974,4.2005,4.203,4.2051,4.2017,4.2155,4.2168,4.218,4.2224,4.2242,4.2036,4.2036,4.2036,4.2035,0,4.152,4.1582,4.1635,4.1695,4.1735,4.1806,4.182,4.186,4.1857,4.1873,4.1962,4.1998,4.2061,4.2086,4.2084,4.2193,4.2178,4.2153,4.2105,4.2201,4.2243,4.226,4.2042,4.204,4.2039,4.2038,0,0,4.166,4.1721,4.174,4.1768,4.1819,4.1868,4.1939,4.2,4.2035,4.2079,4.214,4.2226,4.2204,4.2239,4.2241,4.2291,4.2391,4.2261,4.2262,4.2285,4.2516,4.2535,4.2555,4.2382,4.2385,4.2387,4.2513,0,4.1776,4.1898,4.1903,4.2016,4.2075,4.2058,4.212,4.2159,4.2176,4.2229,4.2248,4.231,4.2275,4.2296,4.2345,4.2368,4.2438,4.2359,4.244,4.2443,4.243,4.2577,4.2597,4.2713,4.2529,4.2532,4.2534,0,4.1927,4.1976,4.2094,4.2138,4.2163,4.2218,4.2276,4.2326,4.2371,4.238,4.242,4.2415,4.2489,4.2438,4.2542,4.2489,4.2522,4.2539,4.2543,4.2552,4.2495,4.2591,4.275,4.2769,4.2559,4.2557,4.2555,0,4.202,4.2115,4.2199,4.2223,4.2275,4.2315,4.2339,4.238,4.2417,4.2468,4.2492,4.2551,4.2584,4.263,4.2642,4.2604,4.2747,4.2696,4.2758,4.2758,4.279,4.2788,4.2959,4.2809,4.2809,4.2809,4.2808,0,4.2149,4.2223,4.2241,4.2293,4.2376,4.2381,4.2463,4.2485,4.2522,4.2579,4.2568,4.2622,4.2633,4.2691,4.27,4.2786,4.2801,4.2811,4.2813,4.2813,4.2812,4.2836,4.2828,4.2813,4.2812,4.2811,4.2811,0,4.2267,4.2282,4.2372,4.2415,4.2427,4.2487,4.2524,4.2574,4.259,4.2663,4.268,4.2706,4.2772,4.2788,4.2868,4.2874,4.2976,4.297,4.2961,4.2961,4.3022,4.3017,4.3216,4.3243,4.3074,4.3076,4.3077,0,4.2349,4.2406,4.2454,4.2491,4.2517,4.2576,4.2614,4.2622,4.2662,4.2718,4.2762,4.2827,4.288,4.2988,4.3014,4.3076,4.3072,4.3137,4.3081,4.3079,4.3075,4.3072,4.3078,4.3148,4.315,4.3151,4.3152,0,4.2495,4.2499,4.2553,4.2611,4.2656,4.2702,4.2745,4.2776,4.2791,4.2836,4.2904,4.2945,4.3026,4.3092,4.3154,4.318,4.317,4.317,4.3188,4.3188,4.3182,4.3188,4.2992,4.3165,4.3164,4.3163,4.3162,4.3162,4.2598,4.2648,4.2691,4.2752,4.2785,4.2827,4.2877,4.2899,4.2955,4.3021,4.3022,4.3097,4.3142,4.3224,4.3254,4.3313,4.3294,4.3319,4.3326,4.3332,4.3338,4.3171,4.3325,4.3324,4.3324,4.3324,4.3323,0,4.2744,4.2771,4.2827,4.2888,4.2937,4.2921,4.2969,4.3012,4.3077,4.3119,4.3171,4.325,4.3314,4.3346,4.3409,4.3451,4.3448,4.3468,4.3465,4.3472,4.3351,4.333,4.3469,4.3469,4.3469,4.3469,4.3469,4.3469,4.2826,4.2911,4.2921,4.3022,4.3049,4.312,4.3149,4.3188,4.3222,4.331,4.3363,4.3383,4.3422,4.3488,4.3547,4.3555,4.358,4.3603,4.3608,4.3495,4.348,4.3466,4.3446,4.3608,4.3608,4.3724,4.3725,4.3726]},{"header":{"parameterUnit":"m.s-1","parameterCategory":1,"la1":30.2991,"la2":30.254,"lo1":-89.0895,"lo2":-89.0444,"dy":0.0017,"dx":0.0017,"nx":28,"ny":28,"refTime":"2023-07-20T21:00:00:Z","depth":0,"parameterNumber":3,"parameterNumberName":"V-component_of_WINDS"},"data":[0,0,0,0,0,0,0,0,0,0,0,0,0,0,0,0,0,0,0,0,0,0,0,0,0,0,0,0,0,0,0,0,0,0,0,0,0,0,0,0,0,0,0,0,0,0,0,0,0,0,0,0,0,0,0,0,0,0,-0.1028,-0.1028,0,-0.1013,-0.1013,-0.1013,-0.1012,-0.1012,-0.1012,-0.1012,-0.0995,-0.0995,-0.0994,0,0,0,0,0,0,0,0,0,0,0,0,0,-0.1056,-0.1055,-0.1028,-0.1028,-0.1028,-0.1013,-0.1013,-0.1013,-0.1012,-0.1012,-0.1012,-0.1012,-0.0995,-0.0995,-0.0994,0,0,0,0,0,0,0,0,0,0,0,0,0,-0.1043,-0.1055,-0.1028,-0.1026,-0.1025,-0.1013,-0.1013,-0.1013,-0.1012,-0.1012,-0.1012,-0.1012,-0.0996,-0.0995,-0.0994,-0.0983,0,0,-0.0991,-0.0991,0,0,0,0,0,0,0,0,-0.1043,-0.1042,-0.1026,-0.1026,-0.1025,-0.1015,-0.1016,-0.1003,-0.1012,-0.1017,-0.1012,-0.1013,-0.1001,-0.1,-0.0997,-0.0982,-0.0981,-0.0991,-0.099,-0.099,-0.099,0,0,0,0,0,0,0,-0.1044,-0.1042,-0.1022,-0.1026,-0.1025,-0.1025,-0.1023,-0.1014,-0.1008,-0.1016,-0.1016,-0.1014,-0.1001,-0.0997,-0.0996,-0.0981,-0.0991,-0.099,-0.099,-0.0989,-0.0959,-0.0958,0,0,0,0,0,0,-0.1046,-0.1043,-0.1023,-0.1022,-0.1035,-0.1024,-0.1023,-0.1018,-0.1008,-0.1007,-0.1014,-0.1014,-0.0999,-0.0997,-0.0996,-0.0983,-0.099,-0.0989,-0.0989,-0.0959,-0.0959,-0.0958,0,0,0,0,0,0,-0.1046,-0.1044,-0.1023,-0.1032,-0.103,-0.1024,-0.1018,-0.1017,-0.1013,-0.1006,-0.1005,-0.1012,-0.0999,-0.0997,-0.0987,-0.0982,-0.0989,-0.0988,-0.0959,-0.0959,-0.0958,-0.0957,0,0,0,0,0,0,-0.1047,-0.1044,-0.104,-0.1032,-0.1029,-0.1014,-0.1018,-0.1017,-0.1012,-0.1012,-0.1003,-0.1002,-0.0999,-0.0988,-0.0986,-0.0981,-0.0987,-0.096,-0.0959,-0.0959,-0.0958,-0.0957,-0.0956,0,0,0,0,0,-0.1048,-0.104,-0.104,-0.1037,-0.1024,-0.1014,-0.1012,-0.1009,-0.1012,-0.1007,-0.1003,-0.1003,-0.0983,-0.0987,-0.0984,-0.098,-0.096,-0.0959,-0.0959,-0.0958,-0.0957,-0.0956,0,0,0,0,0,0,-0.1046,-0.1038,-0.1038,-0.1027,-0.1021,-0.1014,-0.1008,-0.1008,-0.1001,-0.1002,-0.0998,-0.0996,-0.0986,-0.0982,-0.0986,-0.0969,-0.0972,-0.0971,-0.0972,-0.0971,-0.0971,-0.0972,-0.0986,0,0,0,0,0,-0.1044,-0.1037,-0.1031,-0.1022,-0.1019,-0.1014,-0.101,-0.1008,-0.1002,-0.0999,-0.0994,-0.0988,-0.0981,-0.0976,-0.0968,-0.0957,-0.0956,-0.0953,-0.0952,-0.0952,-0.0951,-0.0945,-0.0944,-0.0956,-0.0956,-0.0956,0,0,-0.104,-0.1035,-0.1031,-0.1021,-0.1017,-0.101,-0.1012,-0.1004,-0.0999,-0.0998,-0.0988,-0.0984,-0.0977,-0.0967,-0.0962,-0.0963,-0.0947,-0.0951,-0.095,-0.095,-0.0945,-0.0944,-0.0943,-0.0956,-0.0956,-0.0956,0,0,-0.103,-0.1025,-0.1018,-0.1013,-0.1007,-0.1004,-0.1002,-0.0995,-0.0993,-0.0983,-0.0983,-0.0977,-0.0964,-0.0959,-0.0955,-0.0945,-0.0944,-0.0942,-0.0939,-0.0934,-0.0933,-0.0932,-0.0929,-0.0928,-0.0941,-0.0941,-0.0941,0,-0.1026,-0.1016,-0.1013,-0.1006,-0.1002,-0.1002,-0.0994,-0.099,-0.0981,-0.0978,-0.098,-0.0965,-0.096,-0.0949,-0.0947,-0.0943,-0.0941,-0.0943,-0.0933,-0.0932,-0.0931,-0.0929,-0.0927,-0.0941,-0.0941,-0.0941,-0.0941,0,-0.1011,-0.1005,-0.0999,-0.0992,-0.0987,-0.0979,-0.0976,-0.0972,-0.0971,-0.0968,-0.0959,-0.0953,-0.0946,-0.0943,-0.0941,-0.0932,-0.0933,-0.0934,-0.0936,-0.093,-0.0927,-0.0926,-0.0941,-0.0941,-0.0941,-0.0941,0,0,-0.0998,-0.0991,-0.0989,-0.0986,-0.098,-0.0974,-0.0967,-0.096,-0.0957,-0.0951,-0.0945,-0.0935,-0.0937,-0.0932,-0.093,-0.0926,-0.0919,-0.0927,-0.0927,-0.0927,-0.091,-0.0909,-0.0908,-0.0919,-0.0919,-0.0919,-0.0911,0,-0.0988,-0.0975,-0.0974,-0.0963,-0.0957,-0.0958,-0.0952,-0.0947,-0.0945,-0.0939,-0.0936,-0.093,-0.0931,-0.0929,-0.0925,-0.0921,-0.0916,-0.0922,-0.0914,-0.0914,-0.0916,-0.0907,-0.0906,-0.0898,-0.0909,-0.0909,-0.0909,0,-0.0973,-0.0968,-0.0957,-0.0953,-0.095,-0.0945,-0.0939,-0.0934,-0.0929,-0.0928,-0.0924,-0.0923,-0.0916,-0.0919,-0.091,-0.0914,-0.0911,-0.0909,-0.0908,-0.0907,-0.0911,-0.0906,-0.0896,-0.0895,-0.0907,-0.0907,-0.0908,0,-0.0966,-0.0956,-0.0949,-0.0946,-0.0941,-0.0937,-0.0934,-0.093,-0.0926,-0.0921,-0.0919,-0.0913,-0.091,-0.0905,-0.0903,-0.0906,-0.0894,-0.0897,-0.0893,-0.0893,-0.0891,-0.0891,-0.088,-0.0888,-0.0888,-0.0888,-0.0888,0,-0.0954,-0.0947,-0.0945,-0.0941,-0.0934,-0.0932,-0.0925,-0.0923,-0.0919,-0.0914,-0.0914,-0.0909,-0.0906,-0.0901,-0.09,-0.0893,-0.0891,-0.089,-0.089,-0.089,-0.089,-0.0888,-0.0888,-0.0888,-0.0888,-0.0888,-0.0888,0,-0.0944,-0.0942,-0.0934,-0.093,-0.0929,-0.0924,-0.0921,-0.0917,-0.0915,-0.0909,-0.0907,-0.0904,-0.0898,-0.0896,-0.0888,-0.0887,-0.088,-0.0879,-0.0881,-0.0881,-0.0878,-0.0878,-0.0865,-0.0864,-0.0873,-0.0873,-0.0873,0,-0.0937,-0.0932,-0.0928,-0.0925,-0.0923,-0.0918,-0.0915,-0.0913,-0.091,-0.0905,-0.0901,-0.0896,-0.0891,-0.0882,-0.0879,-0.0874,-0.0874,-0.087,-0.0873,-0.0874,-0.0875,-0.0875,-0.0875,-0.0869,-0.0869,-0.0869,-0.0869,0,-0.0924,-0.0924,-0.092,-0.0916,-0.0912,-0.0908,-0.0905,-0.0902,-0.0901,-0.0897,-0.0892,-0.0888,-0.0882,-0.0876,-0.0871,-0.0869,-0.0869,-0.0868,-0.0867,-0.0868,-0.0869,-0.0869,-0.088,-0.0868,-0.0868,-0.0868,-0.0869,-0.0869,-0.0916,-0.0912,-0.0909,-0.0905,-0.0902,-0.0899,-0.0895,-0.0894,-0.0889,-0.0884,-0.0884,-0.0878,-0.0874,-0.0868,-0.0865,-0.0861,-0.0862,-0.086,-0.086,-0.0859,-0.0859,-0.087,-0.086,-0.086,-0.086,-0.086,-0.086,0,-0.0904,-0.0903,-0.0899,-0.0894,-0.0891,-0.0892,-0.0888,-0.0885,-0.0881,-0.0878,-0.0874,-0.0868,-0.0863,-0.0861,-0.0856,-0.0853,-0.0853,-0.0852,-0.0852,-0.0852,-0.0858,-0.086,-0.0852,-0.0852,-0.0852,-0.0852,-0.0852,-0.0852,-0.0898,-0.0892,-0.0891,-0.0884,-0.0883,-0.0878,-0.0876,-0.0873,-0.0871,-0.0865,-0.0861,-0.086,-0.0857,-0.0852,-0.0848,-0.0848,-0.0846,-0.0845,-0.0844,-0.085,-0.0851,-0.0852,-0.0854,-0.0844,-0.0844,-0.0838,-0.0838,-0.0838]}]]